Home   Weather   Freiburg   Past weeks

Flag for Germany Past Weather in Freiburg, Baden-Württemberg, Germany — Yesterday and Last 2 Weeks

Now
28 °F

Ice fog.


Feels Like: 25 °F
Forecast: 17 / 39 °F
Wind: 3 mph from North

Location: Lahr - CAN-AFB

Current Time: Dec 6, 2016 at 11:10:41 pm

Latest Report: Dec 6, 2016 at 7:50 pm


Visibility: 0 mi

Pressure: 30.54 "Hg

Humidity: 100%

Dew Point: 28 °F

Location of FreiburgLocation

Past Weather in Freiburg — Graph

°F

Freiburg Temperature Yesterday

Maximum temperature yesterday: 28 °F (at 1:50 pm)
Minimum temperature yesterday: 23 °F (at 7:50 am)
Average temperature yesterday: 27 °F

High & Low Weather Summary for the Past Weeks

 TemperatureHumidityPressure
High55 °F (Nov 22, 1:20 pm)100% (Nov 22, 8:20 am)30.60 "Hg (Nov 22, 8:20 am)
Low21 °F (Nov 30, 7:20 am)39% (Nov 28, 2:20 pm)29.62 "Hg (Nov 21, 7:20 pm)
Average37 °F88%30.22 "Hg
* Reported Nov 21 7:20 pm — Dec 6 7:50 pm, Freiburg, Weather by CustomWeather, © 2016

Note: Actual official high and low records may vary slightly from our data, if they occured in-between our weather recording intervals... More about our weather records

Advertising

Freiburg Weather History for the Previous 24 Hours

Scroll right to see more
 ConditionsComfort  
Time TempWeatherWind HumidityBarometerVisibility
7:50 pm
Tue, Dec 6
28 °FIce fog.3 mph100%30.54 "Hg0 mi
6:50 pm28 °FIce fog.2 mph100%30.54 "Hg0 mi
6:20 pm28 °FIce fog.1 mph100%30.51 "Hg0 mi
5:50 pm28 °FIce fog.2 mph100%30.51 "Hg0 mi
5:20 pm28 °FIce fog.3 mph100%30.51 "Hg0 mi
4:50 pm28 °FIce fog.3 mph100%30.51 "Hg0 mi
4:20 pm28 °FIce fog.5 mph100%30.51 "Hg0 mi
3:50 pm28 °FIce fog.3 mph100%30.48 "Hg0 mi
3:20 pm28 °FIce fog.3 mph100%30.48 "Hg0 mi
2:50 pm28 °FIce fog.3 mph100%30.48 "Hg0 mi
2:20 pm28 °FIce fog.3 mph100%30.48 "Hg0 mi
1:50 pm28 °FIce fog.3 mph100%30.48 "Hg0 mi
12:50 pm27 °FIce fog.2 mph100%30.48 "Hg0 mi
12:20 pm27 °FIce fog.1 mph100%30.48 "Hg0 mi
11:50 am27 °FIce fog.2 mph100%30.48 "Hg0 mi
11:20 am27 °FIce fog.2 mph100%30.48 "Hg0 mi
10:50 am27 °FIce fog.1 mph100%30.48 "Hg0 mi
10:20 am27 °FIce fog.2 mph100%30.48 "Hg0 mi
9:50 am27 °FIce fog.2 mph100%30.48 "Hg0 mi
9:20 am27 °FIce fog.2 mph100%30.48 "Hg0 mi
8:50 am27 °FIce fog.1 mph100%30.48 "Hg0 mi
8:20 am27 °FIce fog.1 mph100%30.45 "Hg0 mi
7:50 am27 °FIce fog.1 mph100%30.45 "Hg0 mi
7:20 am27 °FIce fog.2 mph100%30.45 "Hg0 mi
Weather by CustomWeather, © 2016

See weather overviewHow to use our weather pages